Weather in Zlatoustovsk

Russia / Amur Oblast     52°58′02″N   133°35′53″E
temp.,
°C
wind,
m/s
gust,
m/s
humid.,
%
clouds,
%
prec.,
mm/h
press.,
hPa
HPBL,
m
3 march, wed
wed300:00−34ssw129368 0.0 102919
03:00−36se118734 0.0 102819
06:00−37e11840 0.0 102719
09:00−29ene118414 0.0 1024114
12:00−18ese028544 0.0 1019342
15:00−16s248370 0.0 1016720
18:00−18se1190100 0.0 101420
21:00−18sse1198100 0.3 101323
4 march, thu
thu400:00−17s1298100 0.6 101279
03:00−17s2297100 1.1 101066
06:00−17sse1298100 0.6 101097
09:00−15s2395100 1.3 1009253
12:00−11wsw3585100 0.3 1008908
15:00−11w3686100 0.6 1008913
18:00−14nnw2297100 0.3 101065
21:00−18nnw1298100 0.8 101176
5 march, fri
fri500:00−20nnw1299100 0.5 101231
03:00−23nw2299100 0.8 101423
06:00−25wnw1299100 0.1 101619
09:00−24nw2296100 0.3 1018286
12:00−21wnw2386100 0.1 1019683
15:00−21nw3581100 0.1 10201051
18:00−27w239593 0.0 102457
21:00−30wsw229897 0.1 102731
6 march, sat
sat600:00−34wsw11100100 0.0 102819
03:00−35sw11100100 0.1 103019
06:00−36s1110095 0.0 103119
09:00−30sw119593 0.0 1030188
12:00−23wsw248597 0.0 1027592
15:00−22w368798 0.0 1026716
18:00−28wsw239782 0.0 102752
21:00−30sw2210090 0.0 103019
7 march, sun
sun700:00−32ssw129994 0.0 103019
03:00−33sse129797 0.1 103019
06:00−34se119598 0.0 102919
09:00−26se129198 0.1 1027180
12:00−17wsw258575 0.0 1023643
15:00−16w378787 0.1 1021769
18:00−18wsw3794100 0.1 1022234
21:00−23wsw1210095 0.1 102420